{"data":{"norad_id":69244,"intl_designator":"2026-117G","name":"STARLINK-37757","alt_names":[],"object_type":"PAYLOAD","status":"ACTIVE","operator":null,"country":"US","launch_date":"2026-05-29","launch_site_code":"AFETR","launch_vehicle":null,"mission":null,"orbit_class":"UNKNOWN","rcs_meters":null,"size_class":null,"mass_kg":null,"dimensions":null,"purposes":["comms"],"wikipedia_slug":null,"has_3d_model":false,"image_url":null,"decayed_at":null,"tle_current":{"epoch":"2026-09-19T22:52:25.967712Z","epoch_age_seconds":74229,"freshness":"FRESH","line1":"1 69244U 26117G   26262.95307833  .00018658  00000+0  56191-3 0  9990","line2":"2 69244  53.1574 156.2581 0001441  85.7389 274.3778 15.34403145 17589","mean_motion":15.34403145,"eccentricity":0.0001441,"inclination_deg":53.1574,"raan_deg":156.2581,"arg_perigee_deg":85.7389,"mean_anomaly_deg":274.3778,"bstar":0.00056191,"rev_number":1758,"period_min":93.847565725629,"perigee_km":461.70812888867,"apogee_km":463.67965635192,"semimajor_km":6840.8308926203,"source":"CELESTRAK","updated_at":"2026-09-20T09:00:44.148464Z"}}}